TimeCDT,TemperatureF,Dew PointF,Humidity,Sea Level PressureIn,VisibilityMPH,Wind Direction,Wind SpeedMPH,Gust SpeedMPH,PrecipitationIn,Events,Conditions,WindDirDegrees,DateUTC
12:15 AM,82.4,73.4,74,30.02,10.0,SSE,6.9,-,N/A,,Clear,160,2013-06-16 05:15:00
12:35 AM,84.2,73.4,70,30.02,10.0,SSE,4.6,-,N/A,,Clear,160,2013-06-16 05:35:00
12:55 AM,82.4,73.4,74,30.01,10.0,SE,3.5,-,N/A,,Clear,140,2013-06-16 05:55:00
1:15 AM,82.4,73.4,74,30.00,10.0,SSE,5.8,-,N/A,,Clear,160,2013-06-16 06:15:00
1:35 AM,82.4,73.4,74,30.00,10.0,South,4.6,-,N/A,,Clear,170,2013-06-16 06:35:00
1:55 AM,82.4,73.4,74,30.00,10.0,SSE,4.6,-,N/A,,Scattered Clouds,160,2013-06-16 06:55:00
2:15 AM,82.4,73.4,74,30.00,10.0,South,4.6,-,N/A,,Scattered Clouds,180,2013-06-16 07:15:00
2:35 AM,84.2,73.4,70,29.99,10.0,South,4.6,-,N/A,,Clear,180,2013-06-16 07:35:00
2:55 AM,82.4,75.2,79,29.99,10.0,Calm,Calm,-,N/A,,Clear,0,2013-06-16 07:55:00
3:15 AM,82.4,75.2,79,29.98,10.0,Calm,Calm,-,N/A,,Scattered Clouds,0,2013-06-16 08:15:00
3:35 AM,82.4,75.2,79,29.98,10.0,SSW,3.5,-,N/A,,Mostly Cloudy,210,2013-06-16 08:35:00
3:55 AM,82.4,73.4,74,29.99,10.0,South,5.8,-,N/A,,Mostly Cloudy,190,2013-06-16 08:55:00
4:15 AM,82.4,73.4,74,29.99,10.0,South,5.8,-,N/A,,Partly Cloudy,180,2013-06-16 09:15:00
4:35 AM,82.4,73.4,74,29.99,10.0,SE,4.6,-,N/A,,Mostly Cloudy,140,2013-06-16 09:35:00
4:55 AM,82.4,73.4,74,30.00,10.0,South,4.6,-,N/A,,Overcast,170,2013-06-16 09:55:00
5:15 AM,82.4,73.4,74,30.00,10.0,South,4.6,-,N/A,,Mostly Cloudy,170,2013-06-16 10:15:00
5:35 AM,82.4,73.4,74,30.00,10.0,South,4.6,-,N/A,,Overcast,170,2013-06-16 10:35:00
5:55 AM,82.4,73.4,74,30.01,10.0,South,4.6,-,N/A,,Overcast,170,2013-06-16 10:55:00
6:15 AM,82.4,73.4,74,30.02,10.0,South,4.6,-,N/A,,Overcast,180,2013-06-16 11:15:00
6:35 AM,82.4,73.4,74,30.02,10.0,SSW,4.6,-,N/A,,Mostly Cloudy,200,2013-06-16 11:35:00
6:55 AM,82.4,75.2,79,30.03,10.0,SW,3.5,-,N/A,,Mostly Cloudy,220,2013-06-16 11:55:00
7:15 AM,82.4,73.4,74,30.04,9.0,SW,4.6,-,N/A,,Mostly Cloudy,220,2013-06-16 12:15:00
7:35 AM,82.4,73.4,74,30.04,8.0,WSW,4.6,-,N/A,,Overcast,250,2013-06-16 12:35:00
7:55 AM,84.2,73.4,70,30.05,9.0,Calm,Calm,-,N/A,,Overcast,0,2013-06-16 12:55:00
8:15 AM,84.2,73.4,70,30.05,7.0,SW,3.5,-,N/A,,Scattered Clouds,220,2013-06-16 13:15:00
8:35 AM,86.0,75.2,70,30.06,8.0,West,4.6,-,N/A,,Clear,270,2013-06-16 13:35:00
8:55 AM,87.8,75.2,66,30.06,9.0,WNW,8.1,-,N/A,,Scattered Clouds,290,2013-06-16 13:55:00
9:15 AM,87.8,73.4,62,30.06,10.0,West,5.8,-,N/A,,Mostly Cloudy,260,2013-06-16 14:15:00
9:35 AM,87.8,73.4,62,30.06,10.0,WSW,5.8,-,N/A,,Overcast,250,2013-06-16 14:35:00
9:55 AM,87.8,73.4,62,30.06,10.0,WSW,5.8,-,N/A,,Overcast,240,2013-06-16 14:55:00
10:15 AM,87.8,73.4,62,30.06,10.0,West,4.6,-,N/A,,Overcast,270,2013-06-16 15:15:00
10:35 AM,87.8,73.4,62,30.06,10.0,West,4.6,-,N/A,,Overcast,280,2013-06-16 15:35:00
10:55 AM,87.8,73.4,62,30.06,10.0,WSW,4.6,-,N/A,,Mostly Cloudy,240,2013-06-16 15:55:00
11:15 AM,91.4,73.4,55,30.05,10.0,SW,5.8,-,N/A,,Scattered Clouds,230,2013-06-16 16:15:00
11:35 AM,89.6,71.6,55,30.05,10.0,SW,8.1,-,N/A,,Scattered Clouds,220,2013-06-16 16:35:00
11:55 AM,89.6,75.2,62,30.04,10.0,North,6.9,-,N/A,,Scattered Clouds,350,2013-06-16 16:55:00
12:15 PM,87.8,75.2,66,30.05,10.0,North,5.8,-,N/A,,Mostly Cloudy,360,2013-06-16 17:15:00
12:35 PM,86.0,75.2,70,30.04,9.0,North,9.2,-,N/A,,Overcast,360,2013-06-16 17:35:00
12:55 PM,86.0,75.2,70,30.04,10.0,NW,5.8,-,N/A,,Overcast,320,2013-06-16 17:55:00
1:15 PM,87.8,73.4,62,30.04,10.0,South,5.8,-,N/A,,Mostly Cloudy,180,2013-06-16 18:15:00
1:35 PM,87.8,73.4,62,30.04,10.0,Calm,Calm,-,N/A,,Overcast,0,2013-06-16 18:35:00
1:55 PM,87.8,73.4,62,30.03,10.0,SSW,5.8,-,N/A,,Overcast,200,2013-06-16 18:55:00
2:15 PM,87.8,73.4,62,30.03,10.0,NW,5.8,-,N/A,,Overcast,310,2013-06-16 19:15:00
2:35 PM,86.0,75.2,70,30.02,10.0,Calm,Calm,-,N/A,,Overcast,0,2013-06-16 19:35:00
2:55 PM,89.6,75.2,62,30.01,10.0,Calm,Calm,-,N/A,,Mostly Cloudy,0,2013-06-16 19:55:00
3:15 PM,89.6,73.4,59,30.01,10.0,West,3.5,-,N/A,,Partly Cloudy,280,2013-06-16 20:15:00
3:35 PM,93.2,73.4,52,30.01,10.0,SW,3.5,-,N/A,,Clear,230,2013-06-16 20:35:00
3:55 PM,89.6,73.4,59,30.00,10.0,SSW,5.8,-,N/A,,Clear,210,2013-06-16 20:55:00
4:15 PM,91.4,71.6,52,30.00,10.0,Calm,Calm,-,N/A,,Partly Cloudy,0,2013-06-16 21:15:00
4:35 PM,93.2,73.4,52,30.00,10.0,SW,5.8,-,N/A,,Partly Cloudy,230,2013-06-16 21:35:00
4:55 PM,93.2,71.6,49,29.99,10.0,SSW,4.6,-,N/A,,Mostly Cloudy,200,2013-06-16 21:55:00
5:15 PM,93.2,71.6,49,29.99,10.0,SSW,6.9,-,N/A,,Scattered Clouds,210,2013-06-16 22:15:00
5:35 PM,89.6,73.4,59,29.99,10.0,South,9.2,-,N/A,,Mostly Cloudy,190,2013-06-16 22:35:00
5:55 PM,89.6,73.4,59,30.00,10.0,SW,10.4,16.1,N/A,,Partly Cloudy,220,2013-06-16 22:55:00
6:15 PM,86.0,73.4,66,30.00,10.0,SSW,9.2,-,N/A,,Mostly Cloudy,200,2013-06-16 23:15:00
6:35 PM,86.0,73.4,66,30.00,10.0,SSW,5.8,-,N/A,,Scattered Clouds,210,2013-06-16 23:35:00
6:55 PM,87.8,71.6,58,30.00,10.0,SSW,6.9,-,N/A,,Clear,210,2013-06-16 23:55:00
7:15 PM,87.8,73.4,62,30.01,10.0,South,6.9,-,N/A,,Clear,190,2013-06-17 00:15:00
7:35 PM,87.8,73.4,62,30.00,10.0,South,5.8,-,N/A,,Scattered Clouds,180,2013-06-17 00:35:00
7:55 PM,87.8,71.6,58,30.00,10.0,South,4.6,-,N/A,,Partly Cloudy,170,2013-06-17 00:55:00
8:15 PM,87.8,71.6,58,29.99,10.0,South,5.8,-,N/A,,Clear,180,2013-06-17 01:15:00
8:35 PM,87.8,73.4,62,29.99,10.0,South,5.8,-,N/A,,Clear,170,2013-06-17 01:35:00
8:55 PM,86.0,73.4,66,30.00,10.0,South,4.6,-,N/A,,Unknown,170,2013-06-17 01:55:00
9:15 PM,86.0,73.4,66,30.00,10.0,South,5.8,-,N/A,,Mostly Cloudy,170,2013-06-17 02:15:00
9:35 PM,86.0,73.4,66,30.00,10.0,South,6.9,-,N/A,,Partly Cloudy,180,2013-06-17 02:35:00
9:55 PM,86.0,73.4,66,30.01,10.0,South,6.9,-,N/A,,Clear,180,2013-06-17 02:55:00
10:15 PM,86.0,73.4,66,30.01,10.0,South,5.8,-,N/A,,Clear,180,2013-06-17 03:15:00
10:35 PM,84.2,73.4,70,30.01,10.0,SSW,5.8,-,N/A,,Clear,200,2013-06-17 03:35:00
10:55 PM,84.2,73.4,70,30.02,10.0,South,5.8,-,N/A,,Clear,190,2013-06-17 03:55:00
11:15 PM,84.2,71.6,66,30.02,10.0,SSW,8.1,-,N/A,,Clear,210,2013-06-17 04:15:00
11:35 PM,84.2,71.6,66,30.02,10.0,SSW,5.8,-,N/A,,Clear,210,2013-06-17 04:35:00
11:55 PM,84.2,71.6,66,30.01,10.0,SSW,5.8,-,N/A,,Clear,210,2013-06-17 04:55:00